Temperature
16 16 17 17 20 21 20 20 19 19 19 18 17 18 19 19 20 19 14 14 14 14 13 14 14 14 14 14 14 14 14 14 14 14 15 15 15 15 14 14 15 15 15 15 15 15 15 15 15
16 16 16 18 21 21 20 19 18 18 17 16 16 17 18 18 16 14 14 14 14 13 13 13 14 13 14 14 14 14 14 14 14 14 14 14 14 14 14 14 14 14 14 14 14 15 14 14 14
15 16 17 19 20 21 20 18 18 17 16 16 17 16 17 16 14 13 13 14 13 13 13 13 13 13 13 13 13 13 14 13 14 14 14 14 14 14 14 14 14 14 14 14 14 14 14 14 14
15 16 17 19 18 18 18 18 17 17 16 16 16 16 15 13 13 13 13 13 13 13 13 13 13 13 13 13 13 13 13 13 13 13 14 14 14 14 14 14 14 14 14 14 14 14 14 14 14
15 17 18 18 17 17 17 16 16 17 17 16 16 16 15 13 13 13 13 13 13 12 12 13 13 13 13 13 13 13 13 13 13 13 13 14 14 14 14 14 14 14 14 14 14 14 14 14 14
15 17 19 18 17 16 16 15 15 16 16 15 15 16 15 13 12 13 13 13 13 12 12 12 12 12 12 12 13 12 12 13 13 13 13 13 13 14 14 14 14 14 14 13 13 13 13 13 13
16 17 18 17 17 16 16 14 15 16 16 15 15 15 15 13 12 12 13 12 12 12 12 12 12 12 12 12 12 12 12 12 13 13 13 13 13 13 14 14 13 13 13 13 13 13 13 13 13
14 17 16 16 16 16 15 14 14 14 15 13 13 15 15 13 12 12 12 12 12 12 12 12 12 12 12 12 12 12 12 12 12 12 12 13 13 13 13 13 13 13 13 13 13 13 13 13 13
13 16 16 16 16 15 14 14 13 12 13 13 12 13 12 12 12 12 12 12 12 12 12 12 12 11 11 11 11 11 11 11 12 12 12 12 12 12 12 13 13 13 13 13 13 13 13 13 13
14 16 16 15 15 15 14 14 13 13 14 13 13 12 12 11 11 11 11 11 11 11 11 11 11 11 11 11 11 11 11 11 11 11 11 12 12 12 12 12 12 13 13 12 12 12 12 12 12
14 15 14 13 13 13 13 13 12 13 14 14 13 12 12 11 11 11 11 11 11 11 11 11 11 11 11 11 11 11 11 11 11 11 11 11 11 11 12 12 12 12 12 12 12 12 12 12 12
13 13 12 12 11 11 12 12 12 12 13 12 12 11 11 11 11 11 11 10 10 11 11 11 11 11 11 11 10 10 10 10 10 11 11 11 11 11 11 11 12 12 11 12 12 11 11 11 11
13 12 11 11 10 10 11 11 12 12 11 11 11 11 11 11 11 11 10 10 10 10 10 10 10 10 10 10 10 10 10 10 10 10 10 11 11 11 11 11 11 11 11 11 11 11 11 11 11
12 11 11 11 11 11 11 12 11 12 11 11 11 11 10 10 10 10 10 10 10 10 10 10 10 10 10 10 10 10 10 10 10 10 10 10 10 11 11 11 11 11 11 11 11 11 11 10 10
10 12 12 12 11 11 11 12 12 11 10 11 10 10 10 10 10 10 10 10 10 10 10 10 10 10 10 10 10 10 10 10 10 10 10 10 10 10 10 11 11 11 11 11 11 10 10 10 10
12 13 13 13 12 11 12 14 14 11 10 11 10 10 10 9 9 10 10 10 10 10 10 10 9 9 9 9 9 10 10 10 10 10 10 10 10 10 10 10 10 10 10 10 10 10 10 10 10
13 14 14 13 12 11 12 13 13 10 10 11 10 10 10 9 9 9 9 9 10 10 10 9 9 9 9 9 9 9 9 9 9 9 9 9 10 10 10 10 10 10 10 10 10 10 10 10 9
14 14 13 13 12 11 12 12 13 11 10 11 10 10 9 9 9 9 9 9 9 10 9 9 9 9 9 9 9 9 9 9 9 9 9 9 9 9 9 9 9 9 9 9 9 9 9 9 9
13 13 13 13 11 11 12 12 12 12 11 11 10 10 9 9 9 9 9 9 9 9 9 9 9 9 9 9 9 9 9 9 9 9 9 9 9 9 9 9 9 9 9 9 9 9 9 9 8
11 12 12 12 10 11 11 12 12 12 11 10 10 10 9 9 8 8 9 9 9 9 9 9 8 8 8 8 8 8 8 8 8 8 8 8 8 8 8 8 8 9 8 8 9 9 8 8 8
11 12 12 11 11 10 10 12 13 12 11 10 9 9 9 8 8 8 8 8 8 8 8 8 8 8 8 8 8 8 8 8 8 8 8 8 8 8 8 8 8 8 8 8 8 8 8 8 8
11 11 10 10 11 12 11 12 14 12 11 11 10 9 9 8 8 8 8 8 8 8 8 8 8 8 8 7 7 7 7 7 7 7 8 8 8 8 8 8 8 8 8 8 8 8 8 8 8
11 10 10 10 10 11 11 11 13 12 12 12 11 9 8 8 8 7 8 8 8 8 8 8 8 7 7 7 7 7 7 7 7 7 7 7 7 7 7 7 7 7 7 7 7 7 7 7 7
9 9 9 9 10 10 11 11 13 13 13 12 11 9 8 7 7 7 7 7 7 7 7 7 7 7 7 7 7 7 7 7 7 7 7 7 7 7 7 7 7 7 7 7 7 7 7 7 7
9 10 10 10 10 12 11 10 12 13 11 11 10 9 8 7 7 7 7 7 7 7 7 7 7 7 7 7 7 7 6 6 6 6 7 7 6 7 7 7 7 7 7 7 7 7 6 6 6
9 10 11 11 12 12 10 10 13 11 9 8 8 8 7 7 6 6 7 6 7 7 6 7 6 6 6 6 6 6 6 6 6 6 6 6 6 6 6 6 6 6 6 6 6 6 6 6 6
9 9 10 10 9 10 11 12 11 10 9 9 8 7 7 6 6 6 6 6 6 6 6 6 6 6 6 6 6 6 6 6 6 6 6 6 6 6 6 6 6 6 6 6 6 6 6 6 6
9 9 9 9 9 10 11 12 12 10 10 9 8 8 7 6 6 6 6 6 6 6 6 6 6 6 6 6 6 6 6 6 6 6 6 6 6 5 6 6 6 6 6 6 5 5 5 5 5
7 7 8 9 9 10 11 12 11 10 9 9 8 7 6 6 5 5 5 5 5 5 5 6 6 6 6 6 6 6 6 5 5 5 5 5 5 5 5 5 5 5 5 5 5 5 5 5 5
8 8 8 8 8 8 10 11 9 9 8 8 7 6 5 5 5 5 5 5 5 5 5 5 5 5 5 5 5 5 5 5 5 5 5 5 5 5 5 5 5 5 5 5 5 5 5 5 5
Wind_Speed
5 2 2 2 3 3 4 3 2 2 1 1 2 2 2 2 2 2 4 3 1 2 4 6 4 5 5 5 5 5 5 5 5 5 5 5 6 7 7 8 8 8 8 9 9 10 10 11 12
3 1 2 2 4 5 4 3 4 1 1 2 1 2 2 1 2 3 2 2 1 2 4 5 5 5 5 5 5 6 5 5 5 5 5 5 6 6 6 7 7 8 8 8 9 9 10 11 12
1 1 1 2 3 4 3 3 2 1 1 1 1 1 2 2 2 2 3 1 1 2 3 4 4 5 6 5 5 5 5 5 5 5 5 5 6 6 6 6 7 7 8 8 8 9 10 10 11
1 2 1 2 4 2 1 2 1 0 1 1 1 1 0 2 2 3 2 1 2 2 3 4 4 4 5 5 5 5 5 5 5 5 5 5 6 6 6 6 7 7 7 8 8 9 10 11 11
0 2 3 3 3 2 1 0 1 2 1 1 2 2 1 1 2 2 1 1 2 3 3 4 4 3 3 5 5 5 5 5 5 5 6 6 5 5 5 6 7 7 7 8 9 10 10 10 11
2 2 3 4 4 3 2 1 2 3 2 2 2 3 1 1 1 2 1 1 2 2 2 2 4 3 2 2 3 4 5 5 5 5 5 6 6 5 6 6 7 7 8 8 9 10 10 11 11
1 2 2 4 4 4 2 1 2 3 3 2 2 3 1 0 1 1 0 1 1 2 2 2 2 3 3 1 1 2 3 4 5 5 5 5 5 5 6 6 7 7 8 8 9 10 10 10 10
1 2 3 4 5 4 3 1 1 3 3 2 2 3 2 1 1 0 0 1 1 1 1 1 1 2 2 2 2 2 1 3 4 5 5 4 5 5 6 7 7 7 7 8 10 10 10 10 10
1 2 3 4 5 3 3 2 1 2 3 3 3 3 4 1 1 1 1 1 1 1 1 1 1 1 2 2 2 3 2 3 4 5 6 5 5 5 6 6 7 7 8 8 9 10 10 10 9
1 3 2 2 2 2 2 3 2 2 4 4 4 4 3 2 3 3 3 3 2 2 2 1 2 2 2 2 2 3 3 4 5 5 6 5 4 4 4 6 7 7 8 8 9 10 10 9 8
1 2 2 2 2 2 3 3 3 4 6 6 6 5 4 4 4 5 5 4 3 3 2 2 2 2 2 2 2 2 2 3 4 5 5 4 4 3 4 6 6 7 7 7 9 9 7 7 6
2 2 2 2 2 2 3 3 4 6 6 5 6 6 5 5 5 6 6 5 4 3 3 3 2 3 3 3 2 3 2 3 3 5 5 5 4 3 4 4 5 5 5 6 6 6 7 6 7
3 2 2 2 2 3 4 6 6 7 7 7 6 5 6 6 6 5 5 5 4 4 4 3 3 4 3 3 2 3 3 3 4 4 5 5 4 4 4 4 4 4 5 5 5 6 6 6 6
2 2 3 3 3 3 4 6 5 6 5 5 4 4 5 5 6 6 5 5 5 5 5 4 4 4 4 3 3 3 3 3 4 4 5 5 5 4 4 4 4 4 5 5 5 6 6 5 5
2 2 2 3 3 2 4 6 6 5 3 4 4 4 5 5 5 6 6 5 5 5 4 4 4 4 5 4 4 3 3 3 3 3 5 6 5 5 4 4 4 4 5 6 6 6 5 5 5
2 3 3 2 2 2 4 7 4 2 4 5 5 5 5 5 6 6 6 5 5 4 4 4 3 4 4 4 3 3 3 3 3 3 4 5 5 5 4 4 4 5 5 5 5 5 5 5 5
3 4 4 3 3 3 5 9 5 3 4 6 5 5 5 5 5 6 5 5 4 4 4 3 3 3 3 3 3 3 3 3 3 3 3 4 5 6 5 4 4 5 4 4 5 5 5 5 5
4 4 5 5 2 4 8 11 9 6 6 7 6 6 5 5 5 5 4 3 3 3 3 3 3 3 3 3 2 2 2 2 2 2 3 4 5 6 5 4 5 5 4 4 5 6 5 5 5
4 5 7 6 4 6 10 12 11 8 7 7 6 6 5 5 4 3 2 2 2 2 2 3 3 3 2 2 3 2 2 2 2 2 3 4 5 6 5 4 5 5 4 5 5 5 6 4 5
6 6 7 6 3 5 9 13 11 9 8 7 6 5 5 3 2 2 1 1 1 1 2 2 3 3 3 3 3 2 2 2 2 2 3 4 5 6 5 5 5 5 4 5 6 6 5 3 4
7 8 7 6 6 5 8 9 8 5 6 6 5 5 4 3 2 1 1 1 1 1 2 2 2 3 3 3 2 2 2 1 1 2 3 4 4 5 5 6 6 6 6 6 6 7 7 5 4
7 6 6 6 6 5 4 7 7 5 6 6 5 3 3 2 2 2 1 1 1 1 1 2 2 3 3 4 4 4 3 3 3 3 3 3 4 5 5 5 6 6 5 6 6 6 5 7 6
3 1 4 6 7 7 7 7 7 4 7 6 4 3 2 2 1 1 1 1 1 0 1 1 2 3 4 4 4 5 4 3 2 3 3 4 4 4 4 5 5 5 5 6 6 6 6 6 6
2 1 1 3 4 6 8 8 7 5 6 4 4 3 2 2 1 1 1 1 0 1 0 1 2 2 3 4 4 5 5 4 4 4 4 4 3 4 5 5 6 6 6 6 7 6 7 6 6
3 2 3 4 5 6 3 6 8 3 3 3 3 3 2 1 1 1 1 1 1 0 0 1 1 1 2 4 4 5 5 5 5 5 5 4 4 4 5 5 6 6 6 6 6 6 7 7 7
6 6 5 5 6 5 3 7 4 0 1 1 2 2 1 0 1 1 1 1 1 1 1 1 1 1 2 3 3 4 4 4 4 5 4 5 4 4 5 6 7 7 7 6 6 6 6 6 7
5 6 4 4 5 7 7 6 5 2 2 2 1 1 1 1 1 1 1 1 2 2 1 1 2 2 2 3 3 3 3 3 4 4 4 4 4 4 5 5 6 6 6 7 7 6 7 6 7
4 3 4 5 5 8 8 8 5 3 3 2 2 1 1 1 1 1 1 2 2 2 2 2 2 2 2 2 3 2 3 3 3 3 4 4 4 4 5 5 6 6 6 7 7 6 7 7 7
5 5 6 5 5 6 7 5 0 1 2 3 2 1 1 1 1 2 2 3 3 2 2 2 2 2 1 1 2 2 2 2 3 3 3 4 3 4 5 5 5 6 6 7 7 7 7 8 8
7 7 7 6 6 6 7 6 3 1 1 1 1 1 1 0 1 2 2 3 3 3 3 3 2 2 2 1 2 2 2 2 2 2 3 3 3 4 4 4 5 5 5 6 7 7 7 8 8
Wind_Direction
336 324 258 221 195 199 213 181 174 153 148 12 337 285 286 301 303 1 34 36 28 143 157 153 160 163 157 156 156 149 145 143 139 138 132 132 131 129 130 133 136 134 130 128 124 120 118 119 119
338 302 217 207 218 213 198 176 183 172 15 347 309 271 269 306 7 7 18 11 38 139 150 153 152 164 157 161 163 160 160 154 145 142 136 130 129 127 131 131 135 138 131 126 127 124 122 121 121
7 345 192 181 210 228 172 146 150 65 18 311 292 311 314 341 4 359 4 351 128 137 144 138 145 161 163 164 168 168 164 163 157 149 146 137 132 131 133 137 134 135 134 132 132 127 126 124 124
235 151 149 192 185 202 179 126 117 178 137 12 298 251 197 20 350 0 16 88 134 133 143 136 142 160 166 170 171 172 171 165 164 159 155 149 142 141 136 137 138 136 136 136 135 133 130 127 125
85 177 169 182 195 172 170 106 238 258 262 296 285 275 274 63 22 26 61 112 134 121 112 128 122 129 156 175 178 180 178 173 169 165 160 153 147 144 145 141 144 142 142 141 137 137 135 130 127
146 186 197 199 186 171 180 197 230 246 255 279 280 273 274 111 20 27 55 115 123 118 112 124 132 120 128 149 154 178 186 183 175 170 165 162 155 151 152 148 146 148 146 144 140 139 136 132 129
181 174 191 184 183 191 175 195 238 255 251 275 287 265 230 160 4 5 72 111 122 124 122 122 152 159 156 145 171 175 185 181 181 173 167 160 158 156 155 152 149 147 145 145 143 140 139 136 132
66 153 163 186 194 196 165 189 267 268 276 320 266 251 258 332 2 258 133 127 120 126 145 160 168 179 191 196 184 192 196 183 175 169 156 149 153 152 154 155 149 146 143 142 144 142 140 135 133
211 191 196 195 198 185 175 219 278 290 264 267 256 278 311 320 211 203 203 203 213 214 213 209 217 199 198 212 193 191 188 186 174 166 146 157 170 163 161 153 144 144 144 140 143 145 142 138 136
190 205 204 185 194 188 209 247 269 254 254 257 257 274 281 247 224 223 224 226 231 237 232 230 229 223 205 195 194 206 204 195 186 182 170 176 180 171 155 136 139 139 140 140 144 147 148 154 150
150 188 159 178 192 210 235 256 251 246 255 258 266 275 271 257 244 237 235 232 234 237 231 228 232 219 203 182 196 205 209 197 183 180 179 177 170 164 161 154 149 152 156 154 152 157 160 161 155
148 163 186 184 186 223 242 253 254 247 259 289 283 274 267 258 248 244 242 237 237 244 241 238 225 219 205 192 191 194 199 195 182 179 184 178 169 174 170 168 164 164 164 158 159 155 156 155 154
176 181 208 229 241 244 249 251 265 263 275 285 278 262 258 255 253 248 248 242 236 241 245 240 228 219 211 197 195 198 200 199 193 183 183 184 173 173 173 172 167 165 161 161 160 158 152 151 149
161 192 238 255 244 240 255 263 256 265 277 273 261 266 271 267 261 252 243 242 240 238 237 234 224 216 211 201 195 203 202 193 195 187 177 178 179 172 171 172 167 162 161 163 165 159 156 153 149
158 209 231 227 239 232 262 260 236 265 269 270 275 275 274 273 264 256 250 243 245 243 237 227 219 205 205 205 196 189 189 180 186 185 177 179 178 176 174 173 170 161 159 156 155 154 151 149 149
188 213 230 198 217 225 251 263 244 282 265 274 280 281 279 277 272 264 258 251 243 239 235 227 212 199 199 203 193 182 180 177 182 178 176 176 176 173 174 173 172 164 159 156 156 159 159 158 156
206 235 252 244 213 229 243 269 276 289 272 276 282 284 285 284 281 276 262 246 233 229 229 220 204 193 193 194 181 173 169 175 180 174 173 176 178 178 176 174 164 161 163 163 162 162 163 161 153
226 243 251 255 236 247 257 269 277 273 268 276 283 284 284 281 282 279 265 238 221 218 219 201 193 185 182 179 170 161 160 172 176 179 182 179 180 182 177 170 165 165 167 167 167 158 153 157 150
229 241 259 266 276 267 266 274 276 272 262 270 276 282 281 280 285 282 268 236 211 199 206 190 186 174 171 181 185 181 187 184 181 187 189 188 186 184 181 175 175 178 179 178 173 159 152 154 154
221 244 263 274 269 270 279 279 274 261 252 256 264 274 282 284 299 285 281 212 188 189 197 190 189 178 181 194 197 203 201 205 195 189 194 191 189 191 191 186 185 182 181 182 177 169 166 164 176
233 241 256 273 294 262 284 278 255 240 236 247 252 259 273 274 277 277 272 251 224 224 217 203 202 191 186 186 180 167 167 172 186 202 205 204 196 193 194 194 192 188 183 189 190 188 182 175 187
248 244 248 262 273 269 264 285 264 244 243 244 245 252 266 277 286 298 291 259 245 240 228 214 205 193 188 184 186 186 194 207 221 215 211 203 202 200 198 195 196 194 193 196 198 198 198 183 184
243 244 246 255 257 271 248 257 270 241 252 243 229 232 241 252 268 280 291 273 239 233 272 240 201 196 189 189 196 201 211 218 216 210 209 203 203 205 206 201 198 199 201 200 201 199 202 198 195
163 162 243 227 236 254 240 238 268 233 245 236 213 215 219 228 253 281 348 17 62 61 211 245 202 193 189 195 201 207 213 212 207 211 209 209 206 210 214 211 204 205 207 204 205 202 205 207 207
200 223 248 231 227 247 199 236 257 256 225 224 220 210 204 214 286 341 7 0 354 311 228 229 201 193 201 205 208 214 216 212 211 213 212 210 209 213 216 215 212 210 212 208 208 207 211 213 213
214 221 233 253 260 270 230 241 257 92 190 223 222 200 185 261 340 340 344 336 328 315 289 268 244 222 209 211 220 226 225 218 220 219 219 215 217 220 217 219 219 214 209 206 207 211 213 214 216
198 220 251 260 270 267 249 252 266 202 216 212 198 202 225 292 323 333 343 343 340 326 295 279 253 240 223 217 220 226 229 227 228 227 223 221 223 225 218 218 217 213 207 204 204 211 212 214 218
247 203 195 214 237 254 256 249 251 212 218 207 217 250 267 301 325 336 342 347 342 333 312 294 271 256 232 220 221 229 230 234 235 224 223 226 225 221 213 212 213 210 205 203 205 213 213 215 218
202 203 220 228 245 250 261 254 3 266 228 208 223 257 275 273 325 339 346 348 347 338 332 314 292 287 269 234 229 234 233 232 233 229 230 230 226 219 215 211 210 209 208 208 210 213 209 214 215
234 225 212 229 239 243 261 264 72 14 326 263 272 285 275 258 344 354 357 357 356 348 340 323 302 288 282 255 232 236 238 225 229 241 240 231 225 223 220 214 209 209 211 211 212 214 212 213 214
Height
1511 1512 1513 1516 1515 1513 1514 1516 1517 1519 1520 1522 1523 1522 1519 1519 1520 1524 1524 1521 1521 1521 1522 1523 1524 1524 1525 1526 1526 1527 1527 1528 1528 1529 1529 1530 1531 1531 1532 1533 1534 1534 1535 1536 1537 1538 1538 1539 1540
1511 1512 1515 1515 1511 1511 1514 1516 1519 1520 1522 1523 1523 1522 1521 1521 1523 1523 1521 1520 1521 1521 1522 1522 1523 1524 1524 1525 1526 1526 1526 1527 1528 1528 1529 1530 1530 1531 1532 1532 1533 1534 1535 1536 1537 1538 1539 1540 1540
1512 1513 1516 1513 1511 1509 1514 1518 1519 1522 1524 1524 1523 1523 1523 1523 1523 1523 1521 1520 1521 1521 1522 1522 1522 1523 1524 1524 1525 1526 1526 1527 1527 1528 1528 1529 1530 1531 1531 1532 1533 1534 1535 1536 1537 1538 1539 1540 1540
1513 1515 1516 1513 1514 1516 1517 1519 1522 1522 1523 1524 1523 1523 1523 1524 1523 1522 1521 1520 1520 1521 1521 1521 1521 1522 1523 1524 1524 1525 1525 1526 1526 1527 1527 1528 1529 1530 1531 1531 1532 1533 1534 1535 1536 1537 1538 1539 1540
1513 1514 1513 1514 1516 1518 1520 1522 1523 1521 1522 1523 1523 1522 1522 1523 1521 1521 1520 1520 1520 1520 1520 1520 1520 1521 1522 1523 1523 1524 1525 1525 1525 1526 1527 1527 1528 1529 1530 1531 1532 1533 1534 1535 1536 1537 1538 1539 1540
1514 1513 1511 1512 1515 1519 1521 1523 1523 1522 1522 1523 1523 1522 1522 1522 1521 1520 1520 1520 1520 1519 1519 1519 1519 1519 1520 1521 1522 1523 1523 1524 1525 1525 1526 1527 1527 1528 1529 1530 1531 1532 1533 1534 1535 1536 1537 1539 1540
1515 1512 1511 1513 1517 1519 1521 1523 1522 1521 1521 1522 1523 1521 1521 1521 1520 1519 1519 1519 1519 1519 1518 1518 1518 1518 1518 1519 1520 1521 1522 1523 1523 1524 1525 1526 1526 1527 1528 1529 1530 1531 1532 1533 1534 1535 1537 1538 1539
1515 1515 1515 1516 1516 1518 1521 1523 1523 1522 1521 1522 1522 1520 1520 1520 1519 1518 1518 1518 1518 1517 1517 1517 1517 1517 1517 1518 1518 1519 1520 1521 1522 1523 1523 1524 1525 1526 1527 1528 1529 1530 1531 1532 1534 1535 1536 1537 1539
1515 1515 1513 1515 1516 1517 1521 1522 1522 1522 1521 1521 1520 1520 1519 1518 1517 1517 1516 1516 1516 1516 1516 1516 1516 1516 1516 1517 1517 1518 1519 1519 1520 1521 1522 1523 1524 1525 1526 1527 1528 1529 1530 1532 1533 1534 1535 1536 1538
1516 1513 1514 1517 1517 1518 1520 1521 1521 1520 1519 1519 1519 1518 1517 1516 1515 1515 1514 1514 1514 1514 1514 1514 1514 1514 1515 1515 1515 1516 1517 1518 1519 1519 1520 1521 1522 1524 1525 1525 1527 1528 1529 1530 1532 1533 1534 1536 1537
1516 1515 1517 1519 1519 1520 1520 1520 1520 1519 1516 1516 1516 1516 1515 1514 1513 1513 1512 1512 1512 1512 1512 1512 1512 1512 1512 1513 1513 1514 1515 1515 1516 1517 1518 1519 1520 1522 1523 1524 1525 1526 1528 1529 1530 1532 1533 1535 1536
1517 1518 1519 1519 1520 1520 1520 1519 1519 1517 1515 1515 1515 1514 1513 1512 1511 1510 1509 1509 1509 1509 1509 1509 1509 1509 1510 1510 1511 1512 1512 1513 1514 1515 1516 1517 1518 1520 1521 1523 1524 1525 1526 1527 1529 1531 1532 1534 1535
1517 1518 1519 1519 1519 1519 1519 1518 1517 1514 1514 1513 1512 1511 1510 1509 1508 1508 1507 1507 1506 1506 1506 1507 1507 1507 1507 1508 1509 1509 1511 1511 1512 1513 1514 1515 1516 1518 1519 1521 1522 1523 1525 1526 1528 1529 1531 1532 1534
1518 1518 1519 1518 1518 1518 1517 1515 1515 1510 1511 1510 1509 1508 1507 1506 1505 1504 1504 1504 1503 1503 1503 1504 1504 1504 1505 1505 1506 1507 1508 1509 1510 1510 1511 1513 1514 1515 1517 1518 1520 1521 1523 1524 1526 1528 1529 1531 1533
1519 1518 1516 1516 1516 1516 1516 1511 1510 1508 1508 1507 1507 1505 1505 1503 1502 1501 1501 1501 1501 1501 1500 1501 1501 1501 1502 1503 1504 1505 1506 1507 1508 1508 1509 1510 1512 1513 1515 1516 1518 1519 1520 1522 1524 1526 1528 1529 1531
1517 1514 1512 1513 1515 1515 1516 1505 1505 1507 1506 1505 1504 1503 1501 1500 1499 1498 1498 1498 1498 1498 1498 1498 1498 1498 1499 1500 1501 1502 1503 1504 1505 1506 1507 1508 1510 1511 1513 1514 1515 1517 1518 1520 1522 1524 1526 1527 1529
1512 1509 1508 1510 1513 1513 1511 1503 1503 1505 1504 1502 1501 1500 1498 1497 1497 1495 1495 1495 1495 1495 1495 1495 1496 1496 1497 1498 1499 1500 1501 1502 1503 1504 1505 1506 1508 1509 1511 1512 1513 1515 1516 1518 1520 1522 1523 1525 1526
1507 1506 1507 1507 1509 1511 1508 1502 1501 1502 1502 1500 1498 1497 1495 1494 1493 1492 1492 1492 1492 1492 1493 1493 1493 1494 1495 1495 1496 1498 1498 1499 1500 1502 1503 1504 1506 1507 1508 1510 1511 1512 1514 1516 1517 1519 1521 1523 1524
1507 1507 1506 1506 1509 1509 1503 1499 1497 1498 1498 1496 1495 1494 1493 1492 1491 1490 1489 1489 1489 1490 1490 1490 1491 1491 1492 1493 1494 1494 1495 1496 1498 1499 1501 1502 1503 1505 1506 1507 1509 1510 1512 1514 1516 1517 1519 1521 1523
1509 1507 1505 1505 1508 1507 1501 1496 1493 1493 1493 1493 1492 1491 1490 1489 1488 1487 1487 1487 1487 1487 1488 1488 1488 1489 1489 1491 1492 1493 1494 1494 1496 1497 1498 1499 1501 1502 1504 1505 1506 1508 1509 1511 1513 1515 1516 1518 1520
1507 1505 1503 1504 1506 1505 1503 1489 1487 1487 1489 1490 1489 1488 1488 1487 1486 1486 1485 1485 1485 1485 1485 1486 1486 1486 1487 1488 1489 1491 1492 1493 1494 1494 1495 1497 1498 1499 1501 1502 1503 1505 1506 1508 1510 1512 1514 1515 1518
1502 1503 1505 1505 1503 1497 1500 1489 1478 1482 1484 1485 1485 1485 1485 1485 1484 1484 1483 1483 1483 1483 1483 1483 1483 1484 1485 1486 1486 1487 1488 1489 1490 1492 1493 1494 1495 1496 1498 1499 1500 1502 1503 1505 1507 1509 1511 1513 1514
1502 1505 1505 1504 1501 1499 1496 1495 1476 1480 1479 1479 1481 1482 1482 1483 1482 1482 1481 1481 1481 1481 1481 1481 1481 1482 1482 1483 1484 1485 1486 1487 1488 1489 1490 1491 1492 1493 1494 1496 1497 1498 1500 1502 1504 1506 1508 1509 1511
1506 1506 1504 1503 1500 1498 1488 1489 1474 1472 1472 1474 1478 1480 1480 1481 1481 1480 1480 1479 1479 1479 1479 1479 1479 1479 1480 1480 1481 1482 1483 1484 1485 1486 1487 1488 1489 1490 1491 1492 1494 1495 1497 1498 1500 1502 1504 1506 1508
1504 1501 1499 1495 1494 1484 1487 1487 1473 1469 1473 1475 1476 1478 1479 1479 1479 1478 1478 1477 1477 1477 1477 1477 1477 1477 1478 1478 1478 1479 1480 1481 1482 1483 1484 1484 1485 1486 1488 1489 1491 1492 1493 1495 1497 1499 1500 1502 1504
1499 1496 1495 1492 1483 1478 1488 1481 1468 1473 1475 1476 1476 1477 1478 1478 1478 1477 1477 1477 1476 1476 1475 1475 1476 1476 1476 1476 1476 1477 1477 1478 1478 1479 1480 1481 1482 1483 1485 1486 1487 1489 1490 1491 1493 1495 1496 1498 1500
1496 1495 1493 1493 1492 1489 1475 1471 1470 1472 1474 1475 1476 1477 1477 1477 1477 1476 1476 1475 1475 1474 1474 1474 1474 1473 1473 1473 1474 1474 1475 1475 1475 1476 1477 1478 1479 1480 1481 1482 1483 1485 1486 1488 1489 1491 1493 1495 1496
1496 1493 1496 1493 1489 1480 1469 1467 1463 1468 1470 1473 1475 1475 1476 1477 1476 1476 1475 1474 1474 1473 1473 1472 1472 1471 1471 1471 1472 1472 1472 1472 1472 1473 1474 1475 1475 1476 1477 1478 1480 1481 1482 1484 1485 1487 1489 1491 1492
1495 1496 1491 1487 1484 1479 1471 1464 1466 1467 1469 1472 1474 1475 1475 1476 1476 1475 1475 1474 1473 1472 1471 1471 1470 1470 1469 1469 1469 1470 1470 1470 1470 1470 1471 1471 1472 1473 1474 1475 1476 1477 1478 1480 1481 1483 1484 1486 1487
1489 1488 1488 1488 1486 1482 1474 1468 1469 1470 1471 1473 1474 1474 1475 1475 1475 1474 1474 1473 1472 1471 1470 1469 1469 1468 1468 1467 1467 1467 1467 1467 1467 1467 1468 1468 1469 1470 1470 1471 1472 1473 1474 1476 1477 1478 1480 1481 1483